[[{"header":{"parameterUnit":"m.s-1","parameterCategory":1,"la1":30.2991,"la2":30.254,"lo1":-89.0895,"lo2":-89.0444,"dy":0.0017,"dx":0.0017,"nx":28,"ny":28,"refTime":"2023-11-10T09:00:00:Z","depth":0,"parameterNumber":2,"parameterNumberName":"U-component_of_WINDS"},"data":[0,0,0,0,0,0,0,0,0,0,0,0,0,0,0,0,0,0,0,0,0,0,0,0,0,0,0,0,0,0,0,0,0,0,0,0,0,0,0,0,0,0,0,0,0,0,0,0,0,0,0,0,0,0,0,0,0,0,-3.0022,-3.0024,0,-3.0123,-3.0125,-3.0126,-3.0155,-3.0155,-3.0154,-3.0154,-3.0254,-3.0257,-3.026,0,0,0,0,0,0,0,0,0,0,0,0,0,-2.9851,-2.9854,-3.0022,-3.0024,-3.0025,-3.0123,-3.0125,-3.0126,-3.0156,-3.0155,-3.0154,-3.0154,-3.0253,-3.0256,-3.026,0,0,0,0,0,0,0,0,0,0,0,0,0,-2.9936,-2.9855,-3.0022,-3.0052,-3.0055,-3.0123,-3.0125,-3.0126,-3.0156,-3.0155,-3.0154,-3.0153,-3.0251,-3.0256,-3.0261,-3.0305,0,0,-3.0275,-3.0277,0,0,0,0,0,0,0,0,-2.9931,-2.9942,-3.0046,-3.005,-3.0054,-3.0126,-3.0101,-3.0186,-3.0156,-3.0117,-3.0154,-3.0153,-3.0212,-3.022,-3.024,-3.031,-3.0314,-3.0275,-3.0278,-3.028,-3.0282,0,0,0,0,0,0,0,-2.9925,-2.9938,-3.0062,-3.0047,-3.0052,-3.0058,-3.007,-3.0117,-3.0167,-3.0121,-3.0123,-3.0135,-3.0214,-3.0235,-3.0243,-3.0316,-3.0275,-3.028,-3.0282,-3.0284,-3.0426,-3.0427,0,0,0,0,0,0,-2.9915,-2.9933,-3.0059,-3.0065,-2.999,-3.0062,-3.0075,-3.0104,-3.0167,-3.0176,-3.0135,-3.0136,-3.0228,-3.0237,-3.0246,-3.0302,-3.028,-3.0285,-3.0287,-3.0425,-3.0426,-3.0427,0,0,0,0,0,0,-2.9911,-2.9926,-3.0055,-3.0,-3.0017,-3.0066,-3.0098,-3.0106,-3.0128,-3.0178,-3.0187,-3.0149,-3.0228,-3.024,-3.029,-3.0306,-3.0287,-3.0291,-3.0424,-3.0425,-3.0427,-3.0413,0,0,0,0,0,0,-2.9906,-2.9924,-2.9943,-3.0,-3.002,-3.0098,-3.0099,-3.0109,-3.0136,-3.0138,-3.0193,-3.0201,-3.0228,-3.0283,-3.0295,-3.0312,-3.0295,-3.0423,-3.0425,-3.0426,-3.0413,-3.0414,-3.0415,0,0,0,0,0,-2.99,-2.9934,-2.9944,-2.9959,-3.0044,-3.0099,-3.011,-3.0141,-3.0138,-3.0156,-3.0188,-3.02,-3.0302,-3.0288,-3.0302,-3.032,-3.0422,-3.0424,-3.0426,-3.0412,-3.0414,-3.0415,0,0,0,0,0,0,-2.9876,-2.9942,-2.9953,-3.0008,-3.0048,-3.0104,-3.0128,-3.0142,-3.0183,-3.0183,-3.0218,-3.023,-3.0278,-3.0304,-3.0287,-3.0366,-3.0362,-3.0367,-3.0347,-3.0349,-3.035,-3.0342,-3.0299,0,0,0,0,0,-2.9877,-2.9918,-2.9973,-3.0016,-3.0036,-3.0078,-3.0103,-3.0124,-3.0166,-3.0183,-3.0219,-3.0259,-3.03,-3.0326,-3.0367,-3.0417,-3.0429,-3.0436,-3.0438,-3.0439,-3.0442,-3.0469,-3.0473,-3.0434,-3.0434,-3.0434,0,0,-2.988,-2.9921,-2.9944,-3.0012,-3.0046,-3.0085,-3.0092,-3.0134,-3.0164,-3.0189,-3.0239,-3.0267,-3.0314,-3.0364,-3.0388,-3.0387,-3.0456,-3.0441,-3.0442,-3.0445,-3.0472,-3.0476,-3.0479,-3.0436,-3.0435,-3.0435,0,0,-2.9905,-2.9941,-2.998,-3.0013,-3.0064,-3.0093,-3.0102,-3.0156,-3.0176,-3.0227,-3.0247,-3.0282,-3.0353,-3.0385,-3.041,-3.0448,-3.0459,-3.046,-3.0467,-3.0493,-3.0496,-3.0499,-3.0511,-3.0515,-3.0463,-3.0463,-3.0463,0,-2.9901,-2.9963,-2.9997,-3.0039,-3.0067,-3.0093,-3.0132,-3.0163,-3.0224,-3.0242,-3.0241,-3.033,-3.0363,-3.0421,-3.043,-3.045,-3.0461,-3.0453,-3.0493,-3.0496,-3.0499,-3.0511,-3.0516,-3.0463,-3.0463,-3.0463,-3.0463,0,-2.9955,-2.9998,-3.0023,-3.0083,-3.0114,-3.0154,-3.0193,-3.0221,-3.0238,-3.0266,-3.0317,-3.0359,-3.0408,-3.0423,-3.0441,-3.0483,-3.0481,-3.0486,-3.0483,-3.0502,-3.0514,-3.0519,-3.0462,-3.0462,-3.0463,-3.0463,0,0,-2.9967,-3.0045,-3.0054,-3.0081,-3.0139,-3.0172,-3.0213,-3.0262,-3.0284,-3.0326,-3.036,-3.0419,-3.0424,-3.0453,-3.0474,-3.0498,-3.0523,-3.05,-3.0501,-3.0502,-3.0571,-3.0566,-3.0571,-3.0532,-3.0533,-3.0534,-3.0567,0,-2.9998,-3.0073,-3.0105,-3.0164,-3.0203,-3.0229,-3.0264,-3.0303,-3.033,-3.0366,-3.0396,-3.0437,-3.0441,-3.0459,-3.0483,-3.0515,-3.0537,-3.0513,-3.0562,-3.0564,-3.0549,-3.0578,-3.0573,-3.0602,-3.0572,-3.0573,-3.0573,0,-3.0044,-3.0087,-3.015,-3.0204,-3.0221,-3.0252,-3.03,-3.0335,-3.0379,-3.0397,-3.043,-3.045,-3.0492,-3.0487,-3.0545,-3.0528,-3.055,-3.0569,-3.0571,-3.0576,-3.0569,-3.0582,-3.0612,-3.0616,-3.0581,-3.0581,-3.058,0,-3.0044,-3.0118,-3.0165,-3.0188,-3.0251,-3.0272,-3.03,-3.0344,-3.0371,-3.0412,-3.043,-3.0475,-3.05,-3.0534,-3.0565,-3.0559,-3.062,-3.0618,-3.0635,-3.0634,-3.0645,-3.0644,-3.0678,-3.0662,-3.0662,-3.0662,-3.0662,0,-3.0075,-3.0113,-3.0166,-3.0195,-3.0238,-3.0274,-3.0314,-3.0343,-3.0382,-3.0416,-3.0441,-3.0472,-3.0512,-3.0548,-3.0573,-3.0617,-3.0628,-3.0643,-3.0649,-3.064,-3.0638,-3.0654,-3.0652,-3.0663,-3.0663,-3.0662,-3.0662,0,-3.0082,-3.012,-3.0173,-3.0229,-3.0244,-3.0273,-3.032,-3.0349,-3.0378,-3.042,-3.0432,-3.0477,-3.0521,-3.0556,-3.0613,-3.063,-3.0675,-3.0683,-3.0661,-3.0663,-3.0678,-3.0676,-3.0723,-3.0731,-3.071,-3.071,-3.071,0,-3.0099,-3.0128,-3.0188,-3.0213,-3.024,-3.0281,-3.0309,-3.0345,-3.0374,-3.0426,-3.0448,-3.0494,-3.0532,-3.0601,-3.0638,-3.0682,-3.0689,-3.0703,-3.0696,-3.0686,-3.0688,-3.0686,-3.0688,-3.0703,-3.0703,-3.0703,-3.0703,0,-3.0123,-3.014,-3.0181,-3.0228,-3.0261,-3.03,-3.0339,-3.0358,-3.0401,-3.0431,-3.0477,-3.0507,-3.0566,-3.061,-3.0658,-3.0685,-3.0701,-3.0706,-3.0712,-3.0702,-3.0688,-3.0695,-3.0661,-3.0704,-3.0704,-3.0704,-3.0704,-3.0704,-3.0135,-3.0162,-3.0208,-3.0252,-3.0286,-3.0322,-3.0351,-3.0384,-3.0423,-3.0474,-3.0493,-3.0539,-3.0583,-3.0648,-3.0676,-3.0712,-3.0713,-3.0722,-3.0725,-3.0726,-3.0724,-3.0683,-3.0721,-3.0721,-3.0721,-3.0721,-3.0721,0,-3.016,-3.0191,-3.0231,-3.0285,-3.032,-3.0333,-3.0377,-3.0405,-3.0446,-3.0485,-3.0523,-3.0575,-3.0618,-3.0659,-3.0704,-3.0726,-3.0734,-3.0736,-3.0734,-3.074,-3.0721,-3.0711,-3.0729,-3.0729,-3.0729,-3.0729,-3.0728,-3.0728,-3.0177,-3.0223,-3.0246,-3.0309,-3.0339,-3.0386,-3.041,-3.0442,-3.0474,-3.0531,-3.0568,-3.0595,-3.0634,-3.0683,-3.0723,-3.0734,-3.0749,-3.0749,-3.0762,-3.0743,-3.0741,-3.074,-3.0731,-3.0752,-3.0752,-3.0778,-3.0778,-3.0778]},{"header":{"parameterUnit":"m.s-1","parameterCategory":1,"la1":30.2991,"la2":30.254,"lo1":-89.0895,"lo2":-89.0444,"dy":0.0017,"dx":0.0017,"nx":28,"ny":28,"refTime":"2023-11-10T09:00:00:Z","depth":0,"parameterNumber":3,"parameterNumberName":"V-component_of_WINDS"},"data":[0,0,0,0,0,0,0,0,0,0,0,0,0,0,0,0,0,0,0,0,0,0,0,0,0,0,0,0,0,0,0,0,0,0,0,0,0,0,0,0,0,0,0,0,0,0,0,0,0,0,0,0,0,0,0,0,0,0,2.2179,2.2179,0,2.2207,2.2208,2.2208,2.2221,2.2221,2.2221,2.2221,2.2247,2.2248,2.2249,0,0,0,0,0,0,0,0,0,0,0,0,0,2.2135,2.2136,2.2179,2.2179,2.218,2.2207,2.2208,2.2208,2.2221,2.2221,2.2221,2.2221,2.2247,2.2248,2.2249,0,0,0,0,0,0,0,0,0,0,0,0,0,2.2158,2.2136,2.2179,2.219,2.2191,2.2207,2.2208,2.2208,2.2221,2.2221,2.2221,2.2221,2.2247,2.2248,2.2249,2.2255,0,0,2.2252,2.2252,0,0,0,0,0,0,0,0,2.2156,2.2159,2.2188,2.2189,2.219,2.2211,2.2202,2.2224,2.2221,2.221,2.2221,2.2221,2.2235,2.2237,2.2242,2.2257,2.2258,2.2252,2.2253,2.2253,2.2253,0,0,0,0,0,0,0,2.2155,2.2158,2.219,2.2188,2.219,2.2193,2.2196,2.2206,2.2222,2.2211,2.2212,2.2215,2.2236,2.2241,2.2243,2.2258,2.2252,2.2253,2.2254,2.2254,2.2282,2.2282,0,0,0,0,0,0,2.2152,2.2157,2.2189,2.2191,2.2173,2.2194,2.2197,2.2204,2.2222,2.2225,2.2215,2.2216,2.2239,2.2242,2.2244,2.2254,2.2253,2.2254,2.2255,2.2282,2.2282,2.2282,0,0,0,0,0,0,2.2151,2.2155,2.2188,2.2174,2.2179,2.2194,2.2202,2.2205,2.221,2.2225,2.2228,2.2218,2.2239,2.2242,2.2253,2.2255,2.2255,2.2256,2.2282,2.2282,2.2282,2.2274,0,0,0,0,0,0,2.215,2.2154,2.2157,2.2174,2.2179,2.2197,2.2202,2.2205,2.2212,2.2213,2.2229,2.2231,2.224,2.2252,2.2254,2.2257,2.2256,2.2281,2.2282,2.2282,2.2274,2.2274,2.2274,0,0,0,0,0,2.2148,2.2152,2.2157,2.2161,2.2183,2.2197,2.22,2.2211,2.2213,2.2216,2.2226,2.2231,2.2255,2.2253,2.2256,2.2258,2.2281,2.2282,2.2282,2.2274,2.2274,2.2274,0,0,0,0,0,0,2.2133,2.2155,2.216,2.217,2.2182,2.2199,2.2203,2.221,2.222,2.2221,2.2233,2.2236,2.2246,2.2253,2.2251,2.2267,2.2269,2.2269,2.2262,2.2262,2.2261,2.226,2.2257,0,0,0,0,0,2.2131,2.2142,2.216,2.2167,2.2173,2.2187,2.2194,2.2201,2.2213,2.2218,2.2229,2.2239,2.225,2.2256,2.2266,2.2276,2.228,2.2279,2.2279,2.2279,2.2279,2.2287,2.2287,2.2283,2.2283,2.2283,0,0,2.2127,2.214,2.2145,2.2164,2.2174,2.2185,2.2191,2.2201,2.2209,2.2219,2.2231,2.2239,2.2252,2.2263,2.2268,2.2269,2.2282,2.2279,2.2279,2.2279,2.2287,2.2287,2.2288,2.2283,2.2283,2.2283,0,0,2.2125,2.2135,2.2144,2.2155,2.217,2.218,2.2182,2.22,2.2206,2.2218,2.2227,2.2236,2.2253,2.2263,2.227,2.2274,2.228,2.2277,2.2276,2.2283,2.2283,2.2283,2.2286,2.2287,2.2278,2.2278,2.2278,0,2.2117,2.2134,2.2147,2.2157,2.2166,2.2178,2.2187,2.2196,2.2214,2.2219,2.2221,2.2244,2.2253,2.2267,2.2269,2.2274,2.2277,2.2275,2.2282,2.2283,2.2283,2.2286,2.2287,2.2277,2.2277,2.2277,2.2277,0,2.2124,2.2136,2.214,2.216,2.2169,2.2178,2.2193,2.22,2.2208,2.2218,2.2231,2.2243,2.2257,2.2261,2.2267,2.2276,2.2277,2.228,2.2282,2.2283,2.2286,2.2287,2.2277,2.2277,2.2277,2.2277,0,0,2.2111,2.214,2.2142,2.2152,2.2171,2.218,2.2191,2.2206,2.2213,2.2225,2.2234,2.225,2.2254,2.2262,2.227,2.2276,2.228,2.2279,2.2279,2.2279,2.2293,2.2291,2.2292,2.2284,2.2285,2.2285,2.2292,0,2.2112,2.2133,2.2147,2.2162,2.2173,2.2186,2.2195,2.2208,2.2219,2.223,2.224,2.2252,2.2255,2.2261,2.2267,2.2278,2.2283,2.2278,2.2293,2.2294,2.229,2.2293,2.229,2.2296,2.2293,2.2293,2.2293,0,2.2116,2.213,2.2147,2.2168,2.2173,2.2182,2.2198,2.2208,2.2224,2.2231,2.2241,2.225,2.2262,2.2263,2.228,2.2276,2.2284,2.229,2.2291,2.2293,2.2294,2.2295,2.2298,2.2299,2.2295,2.2295,2.2295,0,2.2106,2.213,2.2144,2.2151,2.2176,2.2182,2.2192,2.2207,2.2216,2.223,2.2237,2.2251,2.2259,2.227,2.2283,2.2282,2.2299,2.2301,2.2305,2.2305,2.2308,2.2307,2.2312,2.2312,2.2311,2.2311,2.2311,0,2.2106,2.2116,2.214,2.2148,2.216,2.2176,2.2188,2.2199,2.2213,2.2224,2.2235,2.2245,2.2261,2.2273,2.2283,2.2296,2.2299,2.2305,2.2308,2.2305,2.2304,2.2309,2.231,2.2312,2.2312,2.2312,2.2312,0,2.2097,2.2113,2.2129,2.2152,2.2158,2.2166,2.2186,2.2194,2.2206,2.222,2.2224,2.2242,2.2257,2.2271,2.229,2.2296,2.231,2.2313,2.2305,2.2307,2.2311,2.2311,2.232,2.2323,2.2319,2.2319,2.2319,0,2.2095,2.2104,2.2129,2.2138,2.2149,2.2162,2.2173,2.2189,2.2199,2.2219,2.2226,2.2242,2.2255,2.2278,2.2293,2.2308,2.2312,2.2314,2.2314,2.2311,2.2313,2.2313,2.2314,2.2314,2.2314,2.2314,2.2313,0,2.2092,2.2101,2.2116,2.2134,2.2147,2.2161,2.2176,2.2183,2.2202,2.2213,2.2229,2.224,2.2261,2.2277,2.2295,2.2305,2.2313,2.2314,2.2316,2.2313,2.2308,2.2312,2.2306,2.2313,2.2313,2.2313,2.2313,2.2313,2.2087,2.2097,2.2117,2.2133,2.2147,2.2162,2.2172,2.2186,2.2201,2.222,2.2229,2.2246,2.2263,2.2287,2.2298,2.2311,2.2313,2.2315,2.2316,2.2316,2.2316,2.2306,2.2314,2.2314,2.2314,2.2314,2.2314,0,2.2086,2.21,2.2115,2.2138,2.2151,2.216,2.2177,2.2188,2.2203,2.2219,2.2234,2.2253,2.227,2.2286,2.2304,2.2311,2.2315,2.2315,2.2315,2.2318,2.2313,2.231,2.2312,2.2312,2.2312,2.2312,2.2312,2.2312,2.2086,2.2103,2.2114,2.2138,2.2152,2.217,2.218,2.2194,2.2207,2.2229,2.2244,2.2255,2.2272,2.2291,2.2307,2.2311,2.2317,2.2316,2.2322,2.2317,2.2318,2.2318,2.2315,2.2317,2.2317,2.2325,2.2325,2.2325]}]]